Showing default

KUIPER-00500, 68882

Orbit data source: Space-Track

KUIPER-00500, 68882 is an American payload satellite in LEO that was launched on Tue, 28 Apr 2026 UTC launched from the Air Force Eastern Test Range (AFETR). Payload-class satellites include a variety of spacecraft equipped with specific instruments for various scientific and technological missions. These include communications satellites like Starlink; space stations such as the ISS; scientific satellites like the Hubble; Earth observation satellites from companies like Planet Labs, Umbra, and HawkEye 360; GPS; miniature CubeSats for education and research; and military/defense satellites.

Loading next visibility...
Identifier
68882, 2026-095U
Orbit
LEO
Country
Flag of USUS
Related business
None
Manufacturer
Unknown
Mission
Operational spacecraft
Bus & Motor
Unknown
Mass
Unknown
Launch date (UTC)
2026-04-28 (4 days ago)
Launch vehicle
Unknown
Launch site
Air Force Eastern Test Range (AFETR)
Object type
Payload
Rocket body
Debris
Shape & HBR
Unknown
Radar Cross Section
RCS unknown

Expand to show TLE details & history
Last TLE update: 7 hours ago

TLE from 7 hours ago
0 KUIPER-00500
1 68882U 26095U   26122.16670139  .00001145  00000-0  41618-4 0  9995
2 68882  51.8798 104.9125 0005873 120.2318  80.7768 15.37151139  1861
Epoch: 2026-05-02T04:00Z
TLE epoch observation values (Epoch: 2026-05-02T04:00:03.000Z)
Latitude
-16.59914°
Longitude
18.26234°
Altitude
458.259 km
Speed
7.638 km/s
True Right ascension
19h 53m 27s
True Declination
-16° 30' 04"
Sunlit
Object was in daylight at epoch
Visualization orbit readout
Latitude
Unknown
Longitude
Unknown
Altitude
Unknown
Speed
Unknown
Apparent Right ascension
Unknown
Apparent Declination
Unknown
Sunlit
N/A
Visualization observer readout
Local Sidereal Time
18:39:10
Azimuth
Unknown
Elevation
Unknown
Doppler factor
Unknown
Orbital elements
Apogee altitude
459.017 km
Perigee altitude
450.991 km
Semi-major axis
6,833.141 km
Eccentricity
0.00059
Inclination
51.8798°
RAAN
104.9125°
Arg. of periapsis
120.2318°
True anomaly
80.84324°
Mean anomaly
80.7768°
Eccentric anomaly
80.81002°
Mean motion
3.84249 °/min
Orbital period
93.69 mins
BSTAR
0.000041618
Loading maneuver chart data...
Computing Atmospheric mass density...
Loading historical data...
Loading historical data...
Loading historical data...
Loading historical data...
Loading historical data...
Loading historical data...
Loading historical data...

Documentation

Showing up to 5 results
|